Volver al catálogo

CZ-6A DEB

ActivoSSO
NORAD 55234·DEBRIS·🇨🇳 China

Lanzado Nov 11, 2022 desde Taiyuan Satellite Launch Center

Loading…

Próximos Pases (próximas 24 horas)

TLE

ActualizadoSource: Space-Track

Época: Sep 14, 2026, 07:53 UTC

1 55234U 22151XB  26257.32862521  .00000714  00000-0  51366-3 0  9997
2 55234  98.8696 221.3123 0110090 170.2516 190.0818 13.97150826195446

Sigue CZ-6A DEB en tiempo real con AllMySat

Download on the App Store